Lincoln, NE

5:21 AM CDT on April 27, 2017 (GMT -0500)
Lincoln Municipal

Weather History for KLNK - July, 2014

Change the Weather History Date:

Thursday, July 3, 2014

  Actual Average Record
Temperature  
Mean Temperature 66 °F 77 °F  
Max Temperature 81 °F 89 °F 108 °F (1936)
Min Temperature 50 °F 65 °F 49 °F (1924)
Degree Days  
Heating Degree Days 0 0  
Month to date heating degree days 0 0  
Since 1 June heating degree days 2 16  
Since 1 July heating degree days 0 0  
Cooling Degree Days 1 12  
Month to date cooling degree days 10 36  
Year to date cooling degree days 448 357  
Since 1 June cooling degree days 288 278  
Growing Degree Days 16 (Base 50)    
Moisture  
Dew Point 52 °F    
Average Humidity 65    
Maximum Humidity 89    
Minimum Humidity 40    
Precipitation  
Precipitation 0.00 in 0.12 in 1.20 in (1935)
Month to date precipitation 0.00 0.36  
Year to date precipitation 15.65 15.05  
Snow  
Snow 0.00 in 0.00 in - ()
Month to date snowfall 0.0 0.0  
Since 1 July snowfall 0.0 0.0  
Snow Depth 0.00 in    
Sea Level Pressure  
Sea Level Pressure 30.19 in    
Wind  
Wind Speed 6 mph (SSE)    
Max Wind Speed 14 mph    
Max Gust Speed 18 mph    
Visibility 10 miles    
Events      
T = Trace of Precipitation, MM = Missing Value Source: NWS Daily Summary

Daily Weather History Graph

Daily Weather History Graph

Search for Another Location

Airport or City:

Trip Planner

Search our weather history database for the weather conditions in past years. The results will help you decide how hot, cold, wet, or windy it might be!

Date:

Astronomy

Jul. 03, 2014 Rise Set
Actual Time 6:00 AM CDT 9:02 PM CDT
Civil Twilight 5:26 AM CDT 9:35 PM CDT
Nautical Twilight 4:44 AM CDT 10:17 PM CDT
Astronomical Twilight 3:54 AM CDT 11:07 PM CDT
Moon 12:03 PM CDT (7/3) No Moon Set
Length of Visible Light 16h 08m
Length of Day
15h 01m
Waxing Crescent, 33% of the Moon is Illuminated
Jul 3
Waxing Crescent
Jul 5
First Quarter
Jul 12
Full
Jul 18
Last Quarter
Jul 26
New

Hourly Weather History & Observations

Time (CDT) Temp. Heat Index Dew Point Humidity Pressure Visibility Wind Dir Wind Speed Gust Speed Precip Events Conditions
12:54 AM 55.0 °F - 48.9 °F 80% 30.19 in 10.0 mi Calm Calm - N/A   Clear
1:54 AM 53.1 °F - 48.9 °F 86% 30.19 in 10.0 mi Calm Calm - N/A   Clear
2:54 AM 54.0 °F - 48.9 °F 83% 30.19 in 10.0 mi Calm Calm - N/A   Clear
3:54 AM 52.0 °F - 46.9 °F 83% 30.20 in 10.0 mi Calm Calm - N/A   Clear
4:54 AM 51.1 °F - 46.9 °F 86% 30.21 in 10.0 mi SSE 3.5 mph - N/A   Clear
5:54 AM 51.1 °F - 46.9 °F 86% 30.22 in 10.0 mi SSE 3.5 mph - N/A   Clear
6:54 AM 52.0 °F - 48.0 °F 86% 30.23 in 10.0 mi SSE 3.5 mph - N/A   Clear
7:54 AM 57.9 °F - 52.0 °F 81% 30.24 in 10.0 mi Calm Calm - N/A   Clear
8:54 AM 64.9 °F - 54.0 °F 68% 30.24 in 10.0 mi SW 3.5 mph - N/A   Clear
9:54 AM 70.0 °F - 52.0 °F 53% 30.23 in 10.0 mi SW 8.1 mph - N/A   Clear
10:54 AM 72.0 °F - 52.0 °F 49% 30.22 in 10.0 mi SSE 3.5 mph - N/A   Clear
11:54 AM 75.0 °F - 52.0 °F 44% 30.22 in 10.0 mi ESE 6.9 mph - N/A   Clear
12:54 PM 77.0 °F - 52.0 °F 42% 30.22 in 10.0 mi SSE 9.2 mph - N/A   Clear
1:54 PM 78.1 °F - 53.1 °F 42% 30.20 in 10.0 mi SE 6.9 mph - N/A   Clear
2:54 PM 79.0 °F - 53.1 °F 40% 30.19 in 10.0 mi SSW 8.1 mph 16.1 mph N/A   Clear
3:54 PM 80.1 °F 80.2 °F 55.9 °F 43% 30.18 in 10.0 mi SSE 9.2 mph - N/A   Clear
4:54 PM 80.1 °F 80.1 °F 55.0 °F 42% 30.17 in 10.0 mi SSE 9.2 mph - N/A   Clear
5:54 PM 80.1 °F 80.2 °F 55.9 °F 43% 30.16 in 10.0 mi SE 11.5 mph - N/A   Clear
6:54 PM 80.1 °F 80.4 °F 57.0 °F 45% 30.15 in 10.0 mi South 10.4 mph - N/A   Clear
7:54 PM 77.0 °F - 57.0 °F 50% 30.14 in 10.0 mi SSE 8.1 mph - N/A   Clear
8:54 PM 75.0 °F - 55.9 °F 51% 30.14 in 10.0 mi SE 6.9 mph - N/A   Clear
9:54 PM 73.0 °F - 55.9 °F 55% 30.14 in 10.0 mi SE 10.4 mph - N/A   Clear
10:54 PM 70.0 °F - 55.9 °F 61% 30.17 in 10.0 mi SE 6.9 mph - N/A   Clear
11:54 PM 68.0 °F - 55.9 °F 65% 30.18 in 10.0 mi South 4.6 mph - N/A   Clear